Tracking 29892 objects as of 21-Nov-2024
HD Live streaming from Space Station
objects crossing your sky now

JILIN-01-09

Track JILIN-01-09 now!
10-day predictions


NORAD ID: 43943
Int'l Code: 2019-005B
Perigee: 529.7 km
Apogee: 533.1 km
Inclination: 97.5 °
Period: 95.1 minutes
Semi major axis: 6902 km
RCS: Unknown
Launch date: January 21, 2019
Source: People's Republic of China (PRC)
Launch site: Jiuquan Satellite Launch Center, China (JSC)
Your satellite tracking list
Your tracking list is empty




NASA's NSSDC Master Catalog

Two Line Element Set (TLE):
1 43943U 19005B   24326.15476191  .00009216  00000-0  51215-3 0  9994
2 43943  97.4867  57.6356 0002484 269.8106  90.2841 15.13914791322268
Source of the keplerian elements: AFSPC